FW3045 Weather Reports


Display with metric or nautical units.
time (UTC)temp
F
wind
direction
speed
MPH
gust
MPH
rain 1hr
in
rain 24hr
in
rain mn
in
humidity
%
barometer
mb
20260505051521 51 236 0.0 4.0 0.00 0.00 0.00 37 1014.2
20260505041516 50 139 1.0 3.0 0.00 0.00 0.00 43 1014.0
20260505040017 50 208 0.0 2.0 0.00 0.00 0.00 49 1014.0
20260505034516 51 205 1.0 3.0 0.00 0.00 0.00 45 1013.7
20260505033026 52 169 0.0 2.0 0.00 0.00 0.00 44 1013.7
20260505031511 52 115 1.0 11.0 0.00 0.00 0.00 45 1013.5
20260505030010 53 148 0.0 1.0 0.00 0.00 0.00 44 1013.3
20260505024527 55 29 0.0 4.0 0.00 0.00 0.00 44 1013.4
20260505023009 56 84 0.0 1.0 0.00 0.00 0.00 42 1013.2
20260505021526 57 105 0.0 4.0 0.00 0.00 0.00 43 1013.1
20260505020008 58 69 0.0 4.0 0.00 0.00 0.00 41 1012.9
20260505014508 58 346 0.0 3.0 0.00 0.00 0.00 41 1012.9
20260505013008 58 79 0.0 2.0 0.00 0.00 0.00 41 1012.9
20260505011508 58 75 1.0 7.0 0.00 0.00 0.00 41 1012.8
20260505010007 59 86 0.0 2.0 0.00 0.00 0.00 41 1012.8
20260505004514 60 37 0.0 2.0 0.00 0.00 0.00 41 1012.7
20260505001503 61 72 1.0 4.0 0.00 0.00 0.00 40 1012.6
20260504234559 63 309 3.0 10.0 0.00 0.00 0.00 39 1012.3
20260504231536 63 32 1.0 4.0 0.00 0.00 0.00 40 1012.4
20260504230113 62 68 2.0 7.0 0.00 0.00 0.00 40 1012.4
20260504224533 63 73 2.0 5.0 0.00 0.00 0.00 40 1012.3
20260504223036 62 94 2.0 5.0 0.00 0.00 0.00 39 1012.3
20260504221536 62 67 2.0 7.0 0.00 0.00 0.00 40 1012.3
20260504220032 63 68 1.0 6.0 0.00 0.00 0.00 39 1012.3
20260504214532 63 70 2.0 6.0 0.00 0.00 0.00 39 1012.2
20260504213030 63 84 2.0 4.0 0.00 0.00 0.00 41 1012.2
20260504211530 63 274 1.0 5.0 0.00 0.00 0.00 36 1012.2
20260504210031 63 102 1.0 3.0 0.00 0.00 0.00 38 1012.2
20260504204541 64 338 2.0 5.0 0.00 0.00 0.00 35 1012.2
20260504203029 63 74 0.0 3.0 0.00 0.00 0.00 38 1012.4
20260504201527 63 30 0.0 5.0 0.00 0.00 0.00 38 1012.4
20260504200027 63 84 3.0 7.0 0.00 0.00 0.00 35 1012.5
20260504194529 63 252 1.0 9.0 0.00 0.00 0.00 39 1012.5
20260504193025 64 230 2.0 6.0 0.00 0.00 0.00 38 1012.6
20260504191523 65 91 1.0 4.0 0.00 0.00 0.00 37 1012.7
20260504190025 64 72 3.0 7.0 0.00 0.00 0.00 37 1012.7
20260504184532 63 110 1.0 6.0 0.00 0.00 0.00 38 1012.9
20260504183021 63 274 1.0 4.0 0.00 0.00 0.00 38 1012.8
20260504181522 63 76 3.0 6.0 0.00 0.00 0.00 39 1013.0
20260504180018 63 65 2.0 6.0 0.00 0.00 0.00 39 1013.1
20260504174518 62 68 3.0 8.0 0.00 0.00 0.00 39 1013.1
20260504173017 62 340 3.0 7.0 0.00 0.00 0.00 38 1013.0
20260504171516 63 187 2.0 5.0 0.00 0.00 0.00 40 1013.0
20260504081555 47 34 1.0 5.0 0.00 0.00 0.00 78 1010.1